NUSAT-3 (MILANESAT) (42760 NORAD) Tracking and Keplerian Element Data

This shows tracking and keplerian element data for the satellite.

Feedback or suggestion? Click here.




ElementValue
Catalog42760
NameNUSAT-3 (MILANESAT)
Epoch Orbit8226
Epoch Day345.60718513
Epoch Year2018
RAAN189.8841
Inclination43.0161
Eccentricity0.0007839
Argument of Perigee156.3722
Mean Anonmoly239.627
Mean Motion15.09459294
Decay Rate8.98E-05
L11 42760U 17034C 18345.60718513 .00008980 00000-0 56382-3 0 9998
L22 42760 43.0161 189.8841 0007839 156.3722 239.6270 15.09459294 82263

Live tracking and technical data element details for NUSAT-3 (MILANESAT) (NORAD 42760). NUSAT-3 (MILANESAT) can be tracked NOW for your location showing map with azimuth and elevation plus other details from your city location.

Track the satellite on the map from your city or location and see movement details for azimuth, elevation, latitude, longitude, range, height, and movement on the map or in text.







IsCatalogInMostPopularTable: catalog: 42760, numindb: 131
Update: records affected: 1



GetName: 42760 NUSAT-3 (MILANESAT)

Hit Count: updated at: Thu, 13 Dec 2018 04:42:29 GMT